[[{"header":{"parameterUnit":"m.s-1","parameterCategory":1,"la1":30.2991,"la2":30.254,"lo1":-89.0895,"lo2":-89.0444,"dy":0.0017,"dx":0.0017,"nx":28,"ny":28,"refTime":"2023-09-10T03:00:00:Z","depth":0,"parameterNumber":2,"parameterNumberName":"U-component_of_WINDS"},"data":[0,0,0,0,0,0,0,0,0,0,0,0,0,0,0,0,0,0,0,0,0,0,0,0,0,0,0,0,0,0,0,0,0,0,0,0,0,0,0,0,0,0,0,0,0,0,0,0,0,0,0,0,0,0,0,0,0,0,0.1753,0.1754,0,0.1849,0.185,0.1851,0.1854,0.1852,0.1851,0.185,0.1952,0.1955,0.1959,0,0,0,0,0,0,0,0,0,0,0,0,0,0.1578,0.1581,0.1753,0.1754,0.1756,0.1848,0.185,0.1851,0.1854,0.1852,0.1851,0.185,0.195,0.1955,0.1959,0,0,0,0,0,0,0,0,0,0,0,0,0,0.1662,0.1582,0.1753,0.1768,0.177,0.1848,0.185,0.1851,0.1854,0.1852,0.185,0.1849,0.1949,0.1954,0.196,0.2031,0,0,0.1977,0.198,0,0,0,0,0,0,0,0,0.1657,0.1668,0.1765,0.1767,0.177,0.1837,0.1825,0.1912,0.1854,0.1822,0.185,0.1848,0.1915,0.1924,0.1946,0.2035,0.204,0.1978,0.1981,0.1984,0.1986,0,0,0,0,0,0,0,0.1651,0.1664,0.1791,0.1766,0.1769,0.1771,0.1781,0.1841,0.1878,0.1825,0.1825,0.1836,0.1916,0.194,0.1948,0.2041,0.1978,0.1983,0.1986,0.1989,0.2197,0.2199,0,0,0,0,0,0,0.1642,0.1659,0.1788,0.1794,0.1708,0.1776,0.1787,0.1817,0.1877,0.1884,0.1838,0.1836,0.1931,0.1941,0.1952,0.2041,0.1984,0.1989,0.1992,0.2194,0.2197,0.2199,0,0,0,0,0,0,0.1638,0.1653,0.1784,0.1727,0.1743,0.1781,0.1815,0.182,0.1844,0.1887,0.1894,0.1855,0.193,0.1943,0.2011,0.2044,0.1992,0.1997,0.2192,0.2195,0.2198,0.2218,0,0,0,0,0,0,0.1633,0.1652,0.1678,0.1727,0.1746,0.1841,0.1817,0.1823,0.1853,0.1852,0.1905,0.1912,0.193,0.2003,0.2017,0.2051,0.2001,0.2189,0.2193,0.2197,0.2214,0.2221,0.2227,0,0,0,0,0,0.1626,0.168,0.1679,0.1695,0.178,0.1843,0.1854,0.1873,0.1856,0.1884,0.1911,0.191,0.2037,0.201,0.2026,0.2062,0.2187,0.2192,0.2197,0.2211,0.222,0.2227,0,0,0,0,0,0,0.1634,0.1686,0.1686,0.1757,0.1795,0.1843,0.1879,0.188,0.1925,0.1923,0.1945,0.1957,0.2025,0.205,0.2018,0.2135,0.2111,0.2119,0.2116,0.2124,0.2131,0.2125,0.2006,0,0,0,0,0,0.1644,0.169,0.1733,0.1791,0.181,0.1841,0.1869,0.188,0.1921,0.1938,0.1971,0.2012,0.2062,0.2094,0.2141,0.2217,0.223,0.225,0.2256,0.2261,0.2269,0.2314,0.2324,0.2215,0.2215,0.2215,0,0,0.1665,0.1699,0.1727,0.1794,0.1825,0.1874,0.1855,0.1906,0.1944,0.1946,0.2013,0.2038,0.2086,0.2158,0.2192,0.2181,0.2301,0.2267,0.227,0.2276,0.2319,0.233,0.2339,0.2218,0.2217,0.2217,0,0,0.1729,0.1758,0.1811,0.1842,0.1889,0.191,0.1922,0.197,0.1987,0.2053,0.2057,0.2102,0.2186,0.2221,0.2249,0.2327,0.2329,0.2341,0.2376,0.2419,0.2427,0.2435,0.2466,0.2477,0.2348,0.2348,0.2348,0,0.175,0.1822,0.1838,0.1891,0.1921,0.1924,0.1979,0.2009,0.207,0.2092,0.2078,0.2185,0.2217,0.2299,0.2318,0.234,0.2358,0.2337,0.2424,0.2433,0.244,0.247,0.2481,0.235,0.235,0.235,0.2349,0,0.1847,0.1897,0.1934,0.1992,0.2027,0.208,0.2106,0.2139,0.2146,0.2168,0.2238,0.2276,0.2333,0.2352,0.236,0.2437,0.2429,0.2419,0.2397,0.2452,0.248,0.2492,0.2352,0.2351,0.2351,0.2351,0,0,0.1921,0.1987,0.2,0.2028,0.208,0.212,0.2174,0.2228,0.2258,0.2299,0.2347,0.2418,0.241,0.2443,0.2455,0.2492,0.2555,0.2479,0.248,0.2495,0.2645,0.2655,0.2667,0.2555,0.2558,0.2559,0.2643,0,0.1993,0.2089,0.2105,0.2189,0.2238,0.2241,0.2289,0.2327,0.2349,0.2394,0.2419,0.247,0.2454,0.2474,0.2511,0.254,0.2587,0.2533,0.2604,0.2606,0.2595,0.2682,0.2691,0.2768,0.2653,0.2655,0.2657,0,0.209,0.2134,0.2223,0.2271,0.2292,0.2334,0.2386,0.2428,0.2472,0.2486,0.2522,0.253,0.2589,0.2561,0.2643,0.2607,0.2636,0.2655,0.2658,0.2669,0.2637,0.2698,0.2793,0.2806,0.2674,0.2672,0.2671,0,0.2139,0.222,0.2285,0.2308,0.2363,0.2394,0.2419,0.2461,0.2493,0.2539,0.2561,0.2613,0.2642,0.2683,0.2706,0.2683,0.2788,0.2761,0.2804,0.2804,0.2829,0.2828,0.2934,0.2842,0.2842,0.2841,0.2841,0,0.2221,0.2276,0.2308,0.2348,0.2411,0.2429,0.2491,0.2516,0.2553,0.26,0.2605,0.2649,0.2674,0.2723,0.274,0.2808,0.282,0.2835,0.284,0.2837,0.2836,0.2859,0.2856,0.2844,0.2844,0.2843,0.2843,0,0.2287,0.231,0.2382,0.2428,0.2442,0.2486,0.2527,0.2567,0.2588,0.2647,0.2662,0.2697,0.2754,0.2779,0.285,0.2862,0.294,0.2939,0.2926,0.2928,0.2971,0.2968,0.3099,0.3118,0.301,0.3011,0.3011,0,0.2339,0.2382,0.2433,0.2464,0.249,0.2539,0.2572,0.2592,0.2627,0.268,0.2715,0.2772,0.2819,0.291,0.2942,0.2997,0.3,0.3042,0.3008,0.3005,0.3005,0.3004,0.301,0.3049,0.305,0.3051,0.3052,0,0.243,0.244,0.2486,0.2538,0.2577,0.2618,0.2659,0.2684,0.2711,0.2749,0.2807,0.2843,0.2915,0.2973,0.303,0.3057,0.3061,0.3061,0.3075,0.3074,0.3066,0.3075,0.2946,0.3059,0.3058,0.3058,0.3057,0.3057,0.2494,0.2533,0.2575,0.2628,0.266,0.2698,0.2739,0.2765,0.2814,0.2873,0.2882,0.2945,0.2989,0.3065,0.3095,0.3146,0.3136,0.3155,0.316,0.3165,0.317,0.3054,0.3156,0.3155,0.3155,0.3155,0.3155,0,0.2588,0.2615,0.2663,0.272,0.2762,0.2758,0.2803,0.2839,0.2894,0.2935,0.2981,0.3049,0.3105,0.3141,0.3198,0.3232,0.3235,0.3247,0.3247,0.3254,0.3173,0.3158,0.3244,0.3244,0.3244,0.3244,0.3244,0.3244,0.2642,0.2709,0.2724,0.2808,0.2835,0.2896,0.2923,0.2959,0.2992,0.3067,0.3113,0.3136,0.3176,0.3236,0.3288,0.3298,0.332,0.3333,0.3343,0.3268,0.3259,0.325,0.3236,0.3337,0.3337,0.3419,0.342,0.3421]},{"header":{"parameterUnit":"m.s-1","parameterCategory":1,"la1":30.2991,"la2":30.254,"lo1":-89.0895,"lo2":-89.0444,"dy":0.0017,"dx":0.0017,"nx":28,"ny":28,"refTime":"2023-09-10T03:00:00:Z","depth":0,"parameterNumber":3,"parameterNumberName":"V-component_of_WINDS"},"data":[0,0,0,0,0,0,0,0,0,0,0,0,0,0,0,0,0,0,0,0,0,0,0,0,0,0,0,0,0,0,0,0,0,0,0,0,0,0,0,0,0,0,0,0,0,0,0,0,0,0,0,0,0,0,0,0,0,0,-1.862,-1.8622,0,-1.8787,-1.8788,-1.879,-1.8867,-1.8867,-1.8867,-1.8866,-1.9036,-1.904,-1.9045,0,0,0,0,0,0,0,0,0,0,0,0,0,-1.8367,-1.8371,-1.862,-1.8622,-1.8624,-1.8786,-1.8789,-1.8791,-1.8867,-1.8867,-1.8867,-1.8866,-1.9034,-1.904,-1.9045,0,0,0,0,0,0,0,0,0,0,0,0,0,-1.8499,-1.8373,-1.8619,-1.8682,-1.8689,-1.8786,-1.8789,-1.8791,-1.8867,-1.8867,-1.8867,-1.8866,-1.9032,-1.9039,-1.9046,-1.9093,0,0,-1.9067,-1.907,0,0,0,0,0,0,0,0,-1.8492,-1.8509,-1.867,-1.8677,-1.8686,-1.8806,-1.8762,-1.8893,-1.8867,-1.8799,-1.8866,-1.8866,-1.8959,-1.8972,-1.9004,-1.9101,-1.9108,-1.9068,-1.9072,-1.9075,-1.9077,0,0,0,0,0,0,0,-1.8483,-1.8502,-1.8686,-1.8673,-1.8682,-1.8701,-1.872,-1.8787,-1.8878,-1.8805,-1.8811,-1.883,-1.8963,-1.8997,-1.9008,-1.9111,-1.9068,-1.9074,-1.9078,-1.9081,-1.9257,-1.9257,0,0,0,0,0,0,-1.8463,-1.8494,-1.8681,-1.8691,-1.8586,-1.8706,-1.8727,-1.8767,-1.8878,-1.8895,-1.883,-1.8833,-1.8985,-1.9,-1.9015,-1.9078,-1.9075,-1.9081,-1.9085,-1.9256,-1.9257,-1.9258,0,0,0,0,0,0,-1.8458,-1.8479,-1.8674,-1.8594,-1.862,-1.871,-1.8756,-1.8771,-1.8805,-1.8897,-1.8913,-1.8847,-1.8986,-1.9005,-1.9074,-1.9085,-1.9085,-1.9091,-1.9256,-1.9257,-1.9257,-1.9205,0,0,0,0,0,0,-1.845,-1.8477,-1.8496,-1.8594,-1.8624,-1.873,-1.8756,-1.8774,-1.8817,-1.8822,-1.8917,-1.8933,-1.8987,-1.9063,-1.908,-1.9095,-1.9096,-1.9255,-1.9256,-1.9257,-1.9206,-1.9204,-1.9202,0,0,0,0,0,-1.8441,-1.8474,-1.8496,-1.8518,-1.865,-1.873,-1.8748,-1.8809,-1.8817,-1.8837,-1.8896,-1.893,-1.9081,-1.9069,-1.909,-1.9106,-1.9255,-1.9256,-1.9257,-1.9207,-1.9204,-1.9202,0,0,0,0,0,0,-1.8373,-1.8488,-1.8514,-1.858,-1.8645,-1.8743,-1.877,-1.8804,-1.8868,-1.887,-1.8944,-1.8965,-1.9027,-1.9074,-1.9059,-1.9159,-1.9171,-1.9176,-1.9126,-1.9124,-1.9122,-1.9109,-1.9102,0,0,0,0,0,-1.8366,-1.8423,-1.8519,-1.8568,-1.8599,-1.8679,-1.8716,-1.8758,-1.8829,-1.8856,-1.8921,-1.8987,-1.905,-1.909,-1.9152,-1.9213,-1.9236,-1.9235,-1.9233,-1.9231,-1.9234,-1.9271,-1.9272,-1.9261,-1.9261,-1.9261,0,0,-1.8352,-1.8421,-1.8452,-1.8556,-1.8612,-1.8668,-1.8701,-1.8759,-1.8802,-1.8865,-1.8934,-1.8984,-1.9063,-1.9128,-1.916,-1.9169,-1.9242,-1.9232,-1.923,-1.9235,-1.9272,-1.9273,-1.9274,-1.9262,-1.9262,-1.9262,0,0,-1.8355,-1.8413,-1.846,-1.8516,-1.86,-1.8653,-1.8664,-1.8758,-1.8793,-1.8864,-1.8913,-1.8964,-1.9071,-1.9126,-1.9167,-1.9193,-1.9226,-1.9211,-1.92,-1.9235,-1.9236,-1.9237,-1.9247,-1.9249,-1.9214,-1.9214,-1.9214,0,-1.8326,-1.8414,-1.848,-1.8536,-1.8581,-1.8641,-1.869,-1.874,-1.884,-1.8869,-1.8878,-1.9013,-1.9071,-1.915,-1.9157,-1.9188,-1.9204,-1.92,-1.9231,-1.9232,-1.9234,-1.9244,-1.9248,-1.9212,-1.9212,-1.9212,-1.9213,0,-1.8375,-1.8435,-1.8463,-1.8559,-1.8607,-1.8658,-1.8733,-1.8773,-1.8812,-1.8863,-1.8935,-1.9007,-1.9086,-1.9108,-1.9145,-1.9193,-1.9196,-1.9216,-1.923,-1.9232,-1.9243,-1.9247,-1.9208,-1.9209,-1.921,-1.9211,0,0,-1.8339,-1.8472,-1.8481,-1.8526,-1.8624,-1.8672,-1.8726,-1.8804,-1.8838,-1.8905,-1.8953,-1.9043,-1.9063,-1.911,-1.9155,-1.9185,-1.9202,-1.9203,-1.9206,-1.92,-1.926,-1.9244,-1.9247,-1.9225,-1.9226,-1.9227,-1.9253,0,-1.8355,-1.8457,-1.8519,-1.8596,-1.8653,-1.8712,-1.876,-1.8825,-1.8875,-1.8931,-1.8986,-1.9049,-1.907,-1.91,-1.9133,-1.9192,-1.9215,-1.9191,-1.9271,-1.9272,-1.9249,-1.9252,-1.9235,-1.9257,-1.9258,-1.9259,-1.9259,0,-1.8388,-1.8455,-1.8537,-1.863,-1.8656,-1.8698,-1.8776,-1.8828,-1.8903,-1.8938,-1.8991,-1.9037,-1.9097,-1.9107,-1.9192,-1.9175,-1.9211,-1.9245,-1.9248,-1.9257,-1.9266,-1.9262,-1.9265,-1.9268,-1.9266,-1.9266,-1.9265,0,-1.8354,-1.8465,-1.8529,-1.8565,-1.8675,-1.8703,-1.875,-1.8826,-1.8869,-1.8936,-1.8965,-1.9038,-1.9078,-1.9134,-1.9198,-1.9199,-1.9277,-1.9291,-1.9308,-1.9306,-1.9321,-1.9319,-1.933,-1.9344,-1.9344,-1.9344,-1.9344,0,-1.8366,-1.8414,-1.8515,-1.8554,-1.861,-1.8681,-1.8735,-1.8787,-1.8854,-1.8904,-1.896,-1.9006,-1.9087,-1.9144,-1.9194,-1.9257,-1.9275,-1.9305,-1.9318,-1.93,-1.9296,-1.9324,-1.9325,-1.9345,-1.9345,-1.9344,-1.9344,0,-1.8337,-1.8407,-1.8481,-1.8579,-1.8605,-1.8642,-1.8726,-1.8767,-1.8821,-1.8884,-1.8903,-1.8987,-1.9057,-1.9126,-1.9219,-1.9253,-1.9316,-1.9333,-1.929,-1.9298,-1.931,-1.9308,-1.9339,-1.9347,-1.9355,-1.9355,-1.9355,0,-1.834,-1.8379,-1.8482,-1.852,-1.8566,-1.8627,-1.8672,-1.8743,-1.8788,-1.8878,-1.8907,-1.8981,-1.9044,-1.9152,-1.9222,-1.9294,-1.9313,-1.932,-1.9324,-1.9306,-1.9314,-1.9311,-1.9315,-1.9317,-1.9316,-1.9316,-1.9316,0,-1.8338,-1.8371,-1.8434,-1.8509,-1.8561,-1.8624,-1.8688,-1.8716,-1.8801,-1.8848,-1.892,-1.8969,-1.9065,-1.9137,-1.9218,-1.9267,-1.9305,-1.9314,-1.9322,-1.9304,-1.9278,-1.9292,-1.9284,-1.9313,-1.9313,-1.9313,-1.9313,-1.9314,-1.8326,-1.8364,-1.8442,-1.8511,-1.8567,-1.8626,-1.867,-1.873,-1.8791,-1.8875,-1.8914,-1.8986,-1.9063,-1.9175,-1.9223,-1.9281,-1.9291,-1.9302,-1.9305,-1.9306,-1.9302,-1.9268,-1.9296,-1.9296,-1.9296,-1.9296,-1.9296,0,-1.8327,-1.8381,-1.8443,-1.8533,-1.8586,-1.8619,-1.8693,-1.8736,-1.8799,-1.8867,-1.8928,-1.9011,-1.9083,-1.9158,-1.9234,-1.9266,-1.9286,-1.9283,-1.9282,-1.9293,-1.9289,-1.9275,-1.9266,-1.9266,-1.9266,-1.9266,-1.9266,-1.9266,-1.8334,-1.84,-1.8442,-1.8537,-1.8591,-1.8663,-1.8702,-1.8757,-1.8812,-1.8903,-1.8962,-1.9012,-1.9083,-1.9165,-1.9232,-1.9252,-1.9278,-1.927,-1.9296,-1.9291,-1.9293,-1.9295,-1.9282,-1.9275,-1.9275,-1.9295,-1.9295,-1.9295]}]]